AEE56N EPKK-LGAV

Flight info

Callsign AEE56N
Flight time 2h 5m
Altitude 37000
Route BABKO DCT NIDOK DCT AMRAX DCT PARAK DCT IRGOR DCT IBISI DCT KRATO DCT MAKED UL617 SKP UM749 ROPOX
Aircraft A320/M-SDE3FGHIRWY/LB1

Departure

Time 2026-05-04 08:31
Airport Kraków John Paul II International Airport (EPKK)

Arrival

Time 2026-05-04 10:37
Airport Athens Eleftherios Venizelos International Airport (LGAV)
Time Latitude Longitude Altitude Speed Heading
2026-05-04 08:19 50.07325 19.80107 800 ft 0 kts 167°
2026-05-04 08:24 50.07388 19.80073 800 ft 4 kts 142°
2026-05-04 08:24 50.07402 19.80046 800 ft 3 kts 84°
2026-05-04 08:24 50.07402 19.80041 800 ft 0 kts 78°
2026-05-04 08:27 50.07525 19.80403 800 ft 13 kts 17°
2026-05-04 08:28 50.07620 19.80412 800 ft 15 kts 347°
2026-05-04 08:28 50.07725 19.80376 800 ft 16 kts 347°
2026-05-04 08:28 50.07842 19.80337 800 ft 18 kts 348°
2026-05-04 08:28 50.07963 19.80296 800 ft 14 kts 347°
2026-05-04 08:29 50.08018 19.80253 800 ft 7 kts 294°
2026-05-04 08:29 50.08007 19.80167 800 ft 11 kts 258°
2026-05-04 08:29 50.07949 19.79748 800 ft 74 kts 258°
2026-05-04 08:31 50.06238 19.68418 4130 ft 167 kts 251°
2026-05-04 08:33 49.95890 19.62467 7650 ft 273 kts 197°
2026-05-04 08:33 49.94050 19.61648 8490 ft 276 kts 197°
2026-05-04 08:35 49.79511 19.55122 12389 ft 345 kts 197°
2026-05-04 08:35 49.77205 19.54090 13124 ft 346 kts 197°
2026-05-04 08:35 49.74876 19.53051 13813 ft 349 kts 198°
2026-05-04 08:35 49.72527 19.52003 14392 ft 352 kts 198°
2026-05-04 08:37 49.57813 19.46689 17667 ft 376 kts 185°
2026-05-04 08:37 49.55180 19.46508 18233 ft 380 kts 184°
2026-05-04 08:37 49.52523 19.46328 18731 ft 384 kts 184°
2026-05-04 08:38 49.49837 19.46148 19197 ft 388 kts 185°
2026-05-04 08:38 49.47132 19.45965 19728 ft 391 kts 184°
2026-05-04 08:38 49.44398 19.45779 20222 ft 394 kts 185°
2026-05-04 08:40 49.24701 19.44412 23312 ft 417 kts 183°
2026-05-04 08:40 49.21773 19.44214 23689 ft 421 kts 184°
2026-05-04 08:40 49.18867 19.44017 24024 ft 425 kts 183°
2026-05-04 08:41 49.15899 19.43816 24364 ft 428 kts 183°
2026-05-04 08:41 49.12916 19.43611 24726 ft 430 kts 183°
2026-05-04 08:41 49.09905 19.43403 25069 ft 433 kts 184°
2026-05-04 08:41 49.06877 19.43194 25382 ft 436 kts 183°
2026-05-04 08:42 49.03833 19.42987 25680 ft 440 kts 184°
2026-05-04 08:42 49.00765 19.42779 26008 ft 443 kts 183°
2026-05-04 08:42 48.97712 19.42572 26359 ft 445 kts 184°
2026-05-04 08:42 48.94607 19.42358 26704 ft 448 kts 183°
2026-05-04 08:43 48.91483 19.42142 27046 ft 451 kts 184°
2026-05-04 08:43 48.88334 19.41920 27344 ft 454 kts 183°
2026-05-04 08:43 48.85166 19.41699 27657 ft 458 kts 184°
2026-05-04 08:43 48.81966 19.41480 27935 ft 462 kts 183°
2026-05-04 08:44 48.78750 19.41267 28302 ft 463 kts 183°
2026-05-04 08:44 48.75523 19.41055 28695 ft 463 kts 183°
2026-05-04 08:46 48.53174 19.39549 31836 ft 457 kts 183°
2026-05-04 08:46 48.49986 19.39332 32220 ft 457 kts 183°
2026-05-04 08:46 48.46812 19.39120 32624 ft 456 kts 184°
2026-05-04 08:46 48.43678 19.38913 33033 ft 455 kts 184°
2026-05-04 08:47 48.40511 19.38705 33446 ft 455 kts 184°
2026-05-04 08:47 48.37353 19.38499 33868 ft 454 kts 184°
2026-05-04 08:47 48.34199 19.38292 34262 ft 453 kts 184°
2026-05-04 08:47 48.31053 19.38083 34596 ft 452 kts 184°
2026-05-04 08:48 48.27898 19.37872 34928 ft 452 kts 184°
2026-05-04 08:48 48.24759 19.37664 35255 ft 451 kts 184°
2026-05-04 08:48 48.22680 19.37527 35467 ft 451 kts 184°
2026-05-04 08:48 48.18528 19.37251 35893 ft 450 kts 184°
2026-05-04 08:49 48.15396 19.37039 36208 ft 449 kts 184°
2026-05-04 08:50 47.97961 19.40991 37161 ft 458 kts 166°
2026-05-04 08:50 47.94873 19.42197 37155 ft 459 kts 166°
2026-05-04 08:51 47.88693 19.44604 37153 ft 459 kts 165°
2026-05-04 08:51 47.82503 19.47015 37156 ft 459 kts 165°
2026-05-04 08:52 47.76349 19.49399 37169 ft 460 kts 165°
2026-05-04 08:52 47.70141 19.51797 37158 ft 460 kts 165°
2026-05-04 08:54 47.45329 19.61334 37178 ft 461 kts 165°
2026-05-04 08:55 47.39112 19.63712 37174 ft 462 kts 165°
2026-05-04 08:55 47.32885 19.66080 37176 ft 462 kts 165°
2026-05-04 09:01 46.67328 19.90700 37188 ft 465 kts 165°
2026-05-04 09:01 46.61046 19.93036 37190 ft 466 kts 165°
2026-05-04 09:02 46.54751 19.95361 37193 ft 467 kts 165°
2026-05-04 09:02 46.48446 19.97688 37198 ft 467 kts 165°
2026-05-04 09:03 46.42185 19.99998 37184 ft 467 kts 165°
2026-05-04 09:03 46.35869 20.02306 37198 ft 468 kts 165°
2026-05-04 09:04 46.29548 20.04623 37199 ft 468 kts 165°
2026-05-04 09:04 46.23226 20.06935 37197 ft 468 kts 165°
2026-05-04 09:05 46.16948 20.09228 37198 ft 468 kts 165°
2026-05-04 09:05 46.10693 20.11911 37203 ft 468 kts 160°
2026-05-04 09:06 46.04548 20.15035 37201 ft 468 kts 159°
2026-05-04 09:08 45.79826 20.27081 37200 ft 469 kts 161°
2026-05-04 09:08 45.73670 20.30031 37199 ft 470 kts 160°
2026-05-04 09:09 45.67464 20.33007 37197 ft 470 kts 160°
2026-05-04 09:09 45.61249 20.35972 37215 ft 471 kts 160°
2026-05-04 09:10 45.55019 20.38933 37209 ft 471 kts 160°
2026-05-04 09:10 45.48832 20.41870 37202 ft 472 kts 160°
2026-05-04 09:11 45.42590 20.44836 37200 ft 472 kts 160°
2026-05-04 09:11 45.36337 20.47797 37202 ft 473 kts 160°
2026-05-04 09:12 45.30123 20.50729 37194 ft 473 kts 161°
2026-05-04 09:14 45.05047 20.62480 37197 ft 475 kts 160°
2026-05-04 09:14 44.98753 20.65403 37200 ft 476 kts 160°
2026-05-04 09:15 44.92506 20.68307 37213 ft 476 kts 160°
2026-05-04 09:15 44.86204 20.71233 37209 ft 476 kts 160°
2026-05-04 09:17 44.58067 20.85151 37221 ft 476 kts 157°
2026-05-04 09:18 44.51873 20.88491 37217 ft 477 kts 158°
2026-05-04 09:18 44.45653 20.91759 37217 ft 477 kts 158°
2026-05-04 09:19 44.39474 20.94984 37207 ft 477 kts 158°
2026-05-04 09:19 44.33246 20.98233 37213 ft 477 kts 158°
2026-05-04 09:20 44.27020 21.01485 37229 ft 478 kts 158°
2026-05-04 09:20 44.20782 21.04753 37236 ft 477 kts 158°
2026-05-04 09:21 44.14556 21.07998 37216 ft 478 kts 158°
2026-05-04 09:21 44.08361 21.11201 37217 ft 478 kts 158°
2026-05-04 09:22 44.02122 21.14423 37220 ft 478 kts 158°
2026-05-04 09:22 43.95877 21.17647 37230 ft 478 kts 158°
2026-05-04 09:23 43.89639 21.20868 37226 ft 478 kts 158°
2026-05-04 09:23 43.83395 21.24083 37224 ft 478 kts 158°
2026-05-04 09:25 43.58408 21.36849 37223 ft 480 kts 158°
2026-05-04 09:26 43.52128 21.40045 37221 ft 481 kts 158°
2026-05-04 09:26 43.45842 21.43249 37215 ft 482 kts 158°
2026-05-04 09:27 43.39590 21.46425 37235 ft 482 kts 158°
2026-05-04 09:27 43.33280 21.49615 37222 ft 483 kts 158°
2026-05-04 09:28 43.26972 21.52801 37211 ft 483 kts 158°
2026-05-04 09:28 43.20646 21.55978 37207 ft 484 kts 158°
2026-05-04 09:29 43.14321 21.59146 37220 ft 484 kts 158°
2026-05-04 09:29 43.08020 21.62292 37210 ft 485 kts 159°
2026-05-04 09:30 43.01673 21.65465 37216 ft 485 kts 158°
2026-05-04 09:30 42.95319 21.68638 37212 ft 486 kts 159°
2026-05-04 09:31 42.88907 21.71601 37219 ft 487 kts 161°
2026-05-04 09:31 42.82441 21.74367 37211 ft 487 kts 161°
2026-05-04 09:32 42.75964 21.77148 37213 ft 488 kts 161°
2026-05-04 09:34 42.50170 21.88483 37204 ft 487 kts 160°
2026-05-04 09:34 42.43717 21.91299 37205 ft 487 kts 161°
2026-05-04 09:35 42.37265 21.94131 37195 ft 487 kts 160°
2026-05-04 09:35 42.30805 21.96957 37195 ft 488 kts 161°
2026-05-04 09:37 42.04930 22.08134 37197 ft 489 kts 161°
2026-05-04 09:38 41.99572 22.10562 37190 ft 489 kts 159°
2026-05-04 09:38 41.93168 22.13690 37220 ft 489 kts 158°
2026-05-04 09:39 41.86810 22.16820 37208 ft 489 kts 158°
2026-05-04 09:39 41.80396 22.19904 37196 ft 488 kts 159°
2026-05-04 09:40 41.73979 22.22935 37204 ft 488 kts 159°
2026-05-04 09:40 41.67571 22.25955 37201 ft 488 kts 159°
2026-05-04 09:42 41.41990 22.38059 37195 ft 488 kts 159°
2026-05-04 09:43 41.35576 22.41071 37184 ft 488 kts 159°
2026-05-04 09:43 41.29193 22.44063 37181 ft 489 kts 160°
2026-05-04 09:44 41.22769 22.47067 37209 ft 489 kts 159°
2026-05-04 09:46 40.98285 22.62088 37193 ft 485 kts 150°
2026-05-04 09:46 40.92339 22.66315 37179 ft 485 kts 150°
2026-05-04 09:47 40.86366 22.70543 37174 ft 486 kts 150°
2026-05-04 09:49 40.62503 22.87350 37215 ft 485 kts 150°
2026-05-04 09:51 40.41448 23.01230 37209 ft 485 kts 159°
2026-05-04 09:51 40.35136 23.04368 37204 ft 485 kts 159°
2026-05-04 09:52 40.28810 23.07512 37201 ft 485 kts 159°
2026-05-04 09:52 40.22500 23.10643 37207 ft 485 kts 159°
2026-05-04 09:53 40.16191 23.13774 37208 ft 485 kts 159°
2026-05-04 09:53 40.09875 23.16903 37203 ft 485 kts 159°
2026-05-04 09:54 40.03557 23.20014 37204 ft 485 kts 159°
2026-05-04 09:54 39.97282 23.23091 37196 ft 485 kts 159°
2026-05-04 09:55 39.90967 23.26196 37198 ft 485 kts 159°
2026-05-04 09:55 39.84641 23.29313 37200 ft 485 kts 159°
2026-05-04 09:56 39.78312 23.32411 37201 ft 486 kts 159°
2026-05-04 09:56 39.72028 23.35476 37195 ft 486 kts 159°
2026-05-04 09:57 39.65673 23.38577 37193 ft 487 kts 159°
2026-05-04 09:57 39.59329 23.41668 37202 ft 487 kts 159°
2026-05-04 09:58 39.52979 23.44745 37215 ft 487 kts 160°
2026-05-04 09:58 39.46618 23.47818 37208 ft 488 kts 160°
2026-05-04 10:00 39.24199 23.57744 37165 ft 487 kts 173°
2026-05-04 10:00 39.20844 23.58353 37163 ft 487 kts 173°
2026-05-04 10:02 38.97157 23.62490 32534 ft 499 kts 174°
2026-05-04 10:04 38.73096 23.66704 27588 ft 484 kts 173°
2026-05-04 10:04 38.69768 23.67280 27062 ft 477 kts 173°
2026-05-04 10:04 38.66499 23.67849 26523 ft 471 kts 173°
2026-05-04 10:04 38.63280 23.68410 25938 ft 466 kts 173°
2026-05-04 10:05 38.60059 23.68970 25274 ft 465 kts 173°
2026-05-04 10:05 38.56907 23.69515 24731 ft 461 kts 173°
2026-05-04 10:05 38.53729 23.70064 24218 ft 455 kts 173°
2026-05-04 10:05 38.50609 23.70606 23705 ft 450 kts 173°
2026-05-04 10:06 38.47518 23.71143 23101 ft 445 kts 173°
2026-05-04 10:06 38.44464 23.71672 22510 ft 440 kts 173°
2026-05-04 10:06 38.41442 23.72197 21903 ft 437 kts 173°
2026-05-04 10:08 38.23831 23.75223 17857 ft 407 kts 173°
2026-05-04 10:08 38.21052 23.75611 16925 ft 397 kts 179°
2026-05-04 10:08 38.18324 23.75425 15939 ft 389 kts 190°
2026-05-04 10:08 38.15717 23.74614 14958 ft 381 kts 202°
2026-05-04 10:09 38.13327 23.73252 13955 ft 373 kts 213°
2026-05-04 10:09 38.11167 23.71489 12856 ft 367 kts 217°
2026-05-04 10:09 38.09082 23.69732 11880 ft 362 kts 217°
2026-05-04 10:09 38.06997 23.67982 10934 ft 357 kts 217°
2026-05-04 10:10 38.04935 23.66257 10032 ft 353 kts 216°
2026-05-04 10:10 38.02929 23.64585 9633 ft 333 kts 216°
2026-05-04 10:10 38.01063 23.63039 9486 ft 309 kts 217°
2026-05-04 10:10 37.99299 23.61574 9087 ft 298 kts 217°
2026-05-04 10:11 37.97587 23.60143 8520 ft 293 kts 217°
2026-05-04 10:11 37.95848 23.58830 7960 ft 291 kts 205°
2026-05-04 10:11 37.93875 23.58320 7434 ft 291 kts 179°
2026-05-04 10:11 37.91958 23.58819 7243 ft 275 kts 156°
2026-05-04 10:12 37.90400 23.60063 7021 ft 260 kts 135°
2026-05-04 10:12 37.89226 23.61764 6586 ft 255 kts 127°
2026-05-04 10:12 37.88117 23.63499 6114 ft 252 kts 127°
2026-05-04 10:12 37.87022 23.65220 5670 ft 249 kts 127°
2026-05-04 10:13 37.85981 23.66858 5503 ft 234 kts 127°
2026-05-04 10:13 37.84987 23.68415 5296 ft 223 kts 127°
2026-05-04 10:13 37.84016 23.69931 4935 ft 220 kts 127°
2026-05-04 10:13 37.83055 23.71432 4546 ft 220 kts 127°
2026-05-04 10:14 37.82090 23.72938 4244 ft 221 kts 127°
2026-05-04 10:14 37.81119 23.74452 3938 ft 221 kts 127°
2026-05-04 10:16 37.83350 23.83538 2522 ft 180 kts 34°
2026-05-04 10:16 37.84348 23.84484 2273 ft 179 kts 33°
2026-05-04 10:16 37.85332 23.85418 2049 ft 169 kts 32°
2026-05-04 10:16 37.86206 23.86248 1827 ft 147 kts 32°
2026-05-04 10:17 37.86988 23.87008 1564 ft 138 kts 30°
2026-05-04 10:17 37.87754 23.87715 1380 ft 137 kts 27°
2026-05-04 10:19 37.92926 23.92607 315 ft 117 kts 29°
2026-05-04 10:19 37.93749 23.93314 470 ft 165 kts 31°
2026-05-04 10:19 37.94764 23.94204 1178 ft 181 kts 35°
2026-05-04 10:19 37.95799 23.95208 2070 ft 196 kts 34°
2026-05-04 10:20 37.96911 23.96307 2698 ft 207 kts 34°
2026-05-04 10:20 37.98048 23.97434 3552 ft 208 kts 35°
2026-05-04 10:20 37.99190 23.98572 4385 ft 210 kts 38°
2026-05-04 10:20 38.00066 24.00103 4878 ft 222 kts 67°
2026-05-04 10:21 38.00158 24.02055 4974 ft 228 kts 103°
2026-05-04 10:21 37.99370 24.03765 4993 ft 232 kts 138°
2026-05-04 10:21 37.97977 24.04793 5000 ft 233 kts 155°
2026-05-04 10:21 37.96506 24.05659 5011 ft 233 kts 155°
2026-05-04 10:22 37.93558 24.07407 5018 ft 234 kts 155°
2026-05-04 10:22 37.92093 24.08278 5012 ft 236 kts 155°
2026-05-04 10:22 37.90611 24.09161 5009 ft 235 kts 155°
2026-05-04 10:23 37.89112 24.10056 5009 ft 235 kts 155°
2026-05-04 10:23 37.87649 24.10929 5010 ft 235 kts 155°
2026-05-04 10:25 37.77030 24.15078 5003 ft 230 kts 185°
2026-05-04 10:25 37.75424 24.14988 5003 ft 231 kts 185°
2026-05-04 10:25 37.73819 24.14895 5002 ft 231 kts 185°
2026-05-04 10:25 37.72230 24.14664 4997 ft 226 kts 203°
2026-05-04 10:26 37.70823 24.13810 5000 ft 224 kts 214°
2026-05-04 10:26 37.69475 24.12810 4997 ft 224 kts 215°
2026-05-04 10:26 37.68157 24.11797 4998 ft 226 kts 215°
2026-05-04 10:26 37.66811 24.10757 5003 ft 226 kts 215°
2026-05-04 10:27 37.65465 24.09725 5002 ft 226 kts 216°
2026-05-04 10:27 37.64302 24.08451 5001 ft 219 kts 240°
2026-05-04 10:27 37.63725 24.06719 4948 ft 213 kts 265°
2026-05-04 10:27 37.63723 24.05511 4825 ft 206 kts 284°
2026-05-04 10:28 37.64252 24.03860 4694 ft 204 kts 307°
2026-05-04 10:28 37.65353 24.01935 4530 ft 204 kts 308°
2026-05-04 10:28 37.66178 24.00476 4394 ft 204 kts 307°
2026-05-04 10:28 37.66722 23.99509 4310 ft 204 kts 307°
2026-05-04 10:29 37.67541 23.98052 4179 ft 203 kts 307°
2026-05-04 10:29 37.68360 23.96595 4051 ft 203 kts 307°
2026-05-04 10:29 37.69179 23.95132 3919 ft 204 kts 307°
2026-05-04 10:29 37.69997 23.93670 3801 ft 204 kts 307°
2026-05-04 10:30 37.70815 23.92208 3653 ft 203 kts 307°
2026-05-04 10:30 37.71628 23.90757 3539 ft 199 kts 307°
2026-05-04 10:30 37.72414 23.89359 3423 ft 191 kts 307°
2026-05-04 10:30 37.73174 23.88005 3276 ft 187 kts 307°
2026-05-04 10:31 37.73912 23.86689 3196 ft 186 kts 307°
2026-05-04 10:31 37.74660 23.85352 3110 ft 186 kts 307°
2026-05-04 10:32 37.80405 23.80830 3005 ft 181 kts 23°
2026-05-04 10:33 37.81455 23.81735 2915 ft 183 kts 33°
2026-05-04 10:33 37.82471 23.82703 2725 ft 181 kts 33°
2026-05-04 10:33 37.83469 23.83651 2485 ft 179 kts 34°
2026-05-04 10:33 37.84470 23.84599 2252 ft 179 kts 33°
2026-05-04 10:34 37.85410 23.85493 2026 ft 160 kts 34°
2026-05-04 10:34 37.86256 23.86296 1820 ft 148 kts 32°
2026-05-04 10:34 37.87060 23.87068 1571 ft 142 kts 31°
2026-05-04 10:34 37.87840 23.87805 1391 ft 139 kts 30°
2026-05-04 10:35 37.88619 23.88533 1199 ft 139 kts 31°
2026-05-04 10:35 37.89391 23.89268 1015 ft 138 kts 32°
2026-05-04 10:35 37.90149 23.89979 852 ft 134 kts 33°
2026-05-04 10:35 37.90904 23.90703 659 ft 136 kts 37°
2026-05-04 10:36 37.91659 23.91418 474 ft 136 kts 37°
2026-05-04 10:36 37.92416 23.92142 332 ft 136 kts 40°
2026-05-04 10:36 37.93109 23.92804 291 ft 108 kts 36°
2026-05-04 10:36 37.93570 23.93242 295 ft 58 kts 37°
2026-05-04 10:37 37.93793 23.93455 293 ft 22 kts 38°
2026-05-04 10:37 37.93862 23.93541 294 ft 11 kts 48°
2026-05-04 10:37 37.93907 23.93634 297 ft 15 kts 64°
2026-05-04 10:37 37.93957 23.93769 298 ft 18 kts 67°
2026-05-04 10:39 37.94484 23.94387 303 ft 16 kts 37°
2026-05-04 10:39 37.94580 23.94477 304 ft 19 kts 37°
2026-05-04 10:39 37.94669 23.94562 302 ft 14 kts 37°
2026-05-04 10:40 37.94657 23.94673 303 ft 16 kts 128°
2026-05-04 10:40 37.94583 23.94798 302 ft 19 kts 127°
2026-05-04 10:40 37.94520 23.94902 301 ft 14 kts 128°
2026-05-04 10:40 37.94456 23.95012 301 ft 17 kts 127°
2026-05-04 10:41 37.94377 23.95143 302 ft 19 kts 127°
2026-05-04 10:41 37.94324 23.95234 302 ft 14 kts 127°
2026-05-04 10:41 37.94268 23.95329 302 ft 10 kts 127°
2026-05-04 10:41 37.94236 23.95368 301 ft 5 kts 172°
2026-05-04 10:42 37.94203 23.95336 303 ft 7 kts 216°
2026-05-04 10:42 37.94168 23.95304 302 ft 1 kts 217°
2026-05-04 10:42 37.94163 23.95299 301 ft 0 kts 217°